Time,TemperatureF,DewpointF,PressureIn,WindDirection,WindDirectionDegrees,WindSpeedMPH,WindSpeedGustMPH,Humidity,HourlyPrecipIn,Conditions,Clouds,dailyrainin,SoftwareType,DateUTC
2013-08-26 00:07:00,75.7,67.0,30.05,WSW,248,4.0,9.0,74,0.00,,,0.00,weatherlink.com 1.10,2013-08-26 04:07:00,
2013-08-26 00:22:00,75.3,67.0,30.05,WSW,245,6.0,10.0,75,0.00,,,0.00,weatherlink.com 1.10,2013-08-26 04:22:00,
2013-08-26 00:37:00,75.1,67.0,30.05,SW,232,6.0,12.0,76,0.00,,,0.00,weatherlink.com 1.10,2013-08-26 04:37:00,
2013-08-26 00:52:00,74.9,67.0,30.04,SW,228,8.0,10.0,77,0.00,,,0.00,weatherlink.com 1.10,2013-08-26 04:52:00,
2013-08-26 01:08:00,74.6,67.0,30.03,WSW,240,6.0,14.0,77,0.00,,,0.00,weatherlink.com 1.10,2013-08-26 05:08:00,
2013-08-26 01:23:00,74.5,67.0,30.03,SW,219,7.0,10.0,77,0.00,,,0.00,weatherlink.com 1.10,2013-08-26 05:23:00,
2013-08-26 01:38:00,74.5,67.0,30.01,WSW,243,7.0,9.0,77,0.00,,,0.00,weatherlink.com 1.10,2013-08-26 05:38:00,
2013-08-26 01:53:00,74.4,67.0,30.02,SSW,212,4.0,9.0,77,0.00,,,0.00,weatherlink.com 1.10,2013-08-26 05:53:00,
2013-08-26 02:08:00,74.1,67.0,30.02,SW,228,3.0,7.0,78,0.00,,,0.00,weatherlink.com 1.10,2013-08-26 06:08:00,
2013-08-26 02:23:00,73.9,67.0,30.01,SW,231,6.0,9.0,78,0.00,,,0.00,weatherlink.com 1.10,2013-08-26 06:23:00,
2013-08-26 02:38:00,73.8,67.0,30.01,SSW,198,3.0,8.0,78,0.00,,,0.00,weatherlink.com 1.10,2013-08-26 06:38:00,
2013-08-26 02:53:00,73.7,66.0,30.01,SW,233,3.0,8.0,78,0.00,,,0.00,weatherlink.com 1.10,2013-08-26 06:53:00,
2013-08-26 03:08:00,73.3,66.0,30.01,SW,226,6.0,7.0,79,0.00,,,0.00,weatherlink.com 1.10,2013-08-26 07:08:00,
2013-08-26 03:23:00,73.1,66.0,30.01,WSW,248,5.0,10.0,79,0.00,,,0.00,weatherlink.com 1.10,2013-08-26 07:23:00,
2013-08-26 03:38:00,72.9,66.0,30.01,WSW,242,5.0,9.0,79,0.00,,,0.00,weatherlink.com 1.10,2013-08-26 07:38:00,
2013-08-26 03:53:00,72.6,66.0,30.01,WSW,239,6.0,11.0,80,0.00,,,0.00,weatherlink.com 1.10,2013-08-26 07:53:00,
2013-08-26 04:08:00,72.4,66.0,30.01,WSW,244,6.0,11.0,80,0.00,,,0.00,weatherlink.com 1.10,2013-08-26 08:08:00,
2013-08-26 04:23:00,72.2,66.0,30.00,SW,231,4.0,9.0,80,0.00,,,0.00,weatherlink.com 1.10,2013-08-26 08:23:00,
2013-08-26 04:38:00,72.0,66.0,29.99,West,273,6.0,11.0,81,0.00,,,0.00,weatherlink.com 1.10,2013-08-26 08:38:00,
2013-08-26 04:53:00,71.8,66.0,29.99,WNW,282,3.0,10.0,81,0.00,,,0.00,weatherlink.com 1.10,2013-08-26 08:53:00,
2013-08-26 05:08:00,71.6,66.0,30.00,West,272,6.0,14.0,81,0.00,,,0.00,weatherlink.com 1.10,2013-08-26 09:08:00,
2013-08-26 05:23:00,71.6,66.0,30.00,SW,236,4.0,11.0,82,0.00,,,0.00,weatherlink.com 1.10,2013-08-26 09:23:00,
2013-08-26 05:38:00,71.6,66.0,30.00,SSW,207,6.0,11.0,82,0.00,,,0.00,weatherlink.com 1.10,2013-08-26 09:38:00,
2013-08-26 05:53:00,71.4,66.0,30.00,SW,235,5.0,6.0,82,0.00,,,0.00,weatherlink.com 1.10,2013-08-26 09:53:00,
2013-08-26 06:08:00,71.4,66.0,30.01,SW,230,10.0,10.0,82,0.00,,,0.00,weatherlink.com 1.10,2013-08-26 10:08:00,
2013-08-26 06:23:00,71.4,66.0,30.01,SW,219,8.0,10.0,82,0.00,,,0.00,weatherlink.com 1.10,2013-08-26 10:23:00,
2013-08-26 06:38:00,71.2,66.0,30.02,WSW,238,6.0,7.0,82,0.00,,,0.00,weatherlink.com 1.10,2013-08-26 10:38:00,
2013-08-26 06:53:00,71.2,66.0,30.02,WSW,240,5.0,8.0,82,0.00,,,0.00,weatherlink.com 1.10,2013-08-26 10:53:00,
2013-08-26 07:08:00,71.3,66.0,30.02,WSW,240,4.0,9.0,82,0.00,,,0.00,weatherlink.com 1.10,2013-08-26 11:08:00,
2013-08-26 07:23:00,71.2,66.0,30.02,SW,233,5.0,8.0,82,0.00,,,0.00,weatherlink.com 1.10,2013-08-26 11:23:00,
2013-08-26 07:38:00,71.1,65.0,30.02,SW,235,6.0,10.0,82,0.00,,,0.00,weatherlink.com 1.10,2013-08-26 11:38:00,
2013-08-26 07:53:00,71.3,66.0,30.01,WSW,245,5.0,10.0,82,0.00,,,0.00,weatherlink.com 1.10,2013-08-26 11:53:00,
2013-08-26 08:08:00,71.6,66.0,30.01,WSW,245,4.0,8.0,82,0.00,,,0.00,weatherlink.com 1.10,2013-08-26 12:08:00,
2013-08-26 08:23:00,72.0,66.0,29.99,SW,232,7.0,10.0,81,0.00,,,0.00,weatherlink.com 1.10,2013-08-26 12:23:00,
2013-08-26 08:38:00,72.4,66.0,29.99,SW,236,8.0,12.0,81,0.00,,,0.00,weatherlink.com 1.10,2013-08-26 12:38:00,
2013-08-26 08:53:00,73.4,67.0,30.00,SW,235,7.0,11.0,79,0.00,,,0.00,weatherlink.com 1.10,2013-08-26 12:53:00,
2013-08-26 09:08:00,73.9,67.0,30.00,SW,232,6.0,7.0,79,0.00,,,0.00,weatherlink.com 1.10,2013-08-26 13:08:00,
2013-08-26 09:23:00,74.6,67.0,30.01,West,278,4.0,15.0,78,0.00,,,0.00,weatherlink.com 1.10,2013-08-26 13:23:00,
2013-08-26 09:38:00,75.3,68.0,30.03,NW,320,4.0,11.0,77,0.00,,,0.00,weatherlink.com 1.10,2013-08-26 13:38:00,
2013-08-26 09:53:00,75.7,68.0,30.04,WSW,256,13.0,13.0,76,0.00,,,0.00,weatherlink.com 1.10,2013-08-26 13:53:00,
2013-08-26 10:09:00,76.4,68.0,30.03,West,267,4.0,16.0,76,0.00,,,0.00,weatherlink.com 1.10,2013-08-26 14:09:00,
2013-08-26 10:24:00,76.6,68.0,30.03,WSW,250,3.0,11.0,75,0.00,,,0.00,weatherlink.com 1.10,2013-08-26 14:24:00,
2013-08-26 10:40:00,76.3,68.0,30.02,WSW,248,6.0,11.0,76,0.00,,,0.00,weatherlink.com 1.10,2013-08-26 14:40:00,
2013-08-26 10:54:00,75.8,69.0,30.02,WNW,290,6.0,8.0,78,0.00,,,0.00,weatherlink.com 1.10,2013-08-26 14:54:00,
2013-08-26 11:09:00,75.1,68.0,30.00,SW,231,4.0,6.0,79,0.00,,,0.00,weatherlink.com 1.10,2013-08-26 15:09:00,
2013-08-26 11:24:00,75.3,68.0,29.96,WSW,252,3.0,9.0,79,0.00,,,0.00,weatherlink.com 1.10,2013-08-26 15:24:00,
2013-08-26 11:39:00,75.4,69.0,29.98,WSW,246,4.0,8.0,80,0.00,,,0.00,weatherlink.com 1.10,2013-08-26 15:39:00,
2013-08-26 11:54:00,75.9,69.0,29.98,SW,232,6.0,9.0,78,0.00,,,0.00,weatherlink.com 1.10,2013-08-26 15:54:00,
2013-08-26 12:09:00,76.0,69.0,29.99,West,271,1.0,10.0,78,0.00,,,0.00,weatherlink.com 1.10,2013-08-26 16:09:00,
2013-08-26 12:24:00,76.0,69.0,29.97,SSE,156,1.0,8.0,79,0.00,,,0.00,weatherlink.com 1.10,2013-08-26 16:24:00,
2013-08-26 12:39:00,76.9,70.0,29.97,WSW,238,3.0,11.0,78,0.00,,,0.00,weatherlink.com 1.10,2013-08-26 16:39:00,
2013-08-26 12:54:00,77.7,70.0,29.98,SW,236,2.0,12.0,76,0.00,,,0.00,weatherlink.com 1.10,2013-08-26 16:54:00,
2013-08-26 13:09:00,78.3,69.0,29.98,WSW,257,10.0,20.0,74,0.00,,,0.00,weatherlink.com 1.10,2013-08-26 17:09:00,
2013-08-26 13:24:00,78.4,70.0,29.96,WSW,240,4.0,11.0,74,0.00,,,0.00,weatherlink.com 1.10,2013-08-26 17:24:00,
2013-08-26 13:39:00,77.8,70.0,29.94,SW,231,5.0,15.0,76,0.00,,,0.00,weatherlink.com 1.10,2013-08-26 17:39:00,
2013-08-26 13:54:00,78.0,70.0,29.96,WSW,249,5.0,15.0,77,0.00,,,0.00,weatherlink.com 1.10,2013-08-26 17:54:00,
2013-08-26 14:09:00,78.4,70.0,29.97,WNW,297,11.0,15.0,75,0.00,,,0.00,weatherlink.com 1.10,2013-08-26 18:09:00,
2013-08-26 14:24:00,77.3,70.0,29.97,WSW,253,8.0,14.0,78,0.00,,,0.00,weatherlink.com 1.10,2013-08-26 18:24:00,
2013-08-26 14:39:00,78.2,71.0,29.97,WSW,238,4.0,14.0,79,0.00,,,0.00,weatherlink.com 1.10,2013-08-26 18:39:00,
2013-08-26 14:54:00,78.1,70.0,29.96,West,263,7.0,16.0,77,0.00,,,0.00,weatherlink.com 1.10,2013-08-26 18:54:00,
2013-08-26 15:09:00,79.0,71.0,29.95,West,271,3.0,14.0,76,0.00,,,0.00,weatherlink.com 1.10,2013-08-26 19:09:00,
2013-08-26 15:24:00,80.5,72.0,29.94,SW,233,3.0,9.0,74,0.00,,,0.00,weatherlink.com 1.10,2013-08-26 19:24:00,
2013-08-26 15:39:00,81.6,71.0,29.93,WSW,255,8.0,15.0,70,0.00,,,0.00,weatherlink.com 1.10,2013-08-26 19:39:00,
2013-08-26 15:54:00,81.9,72.0,29.93,WSW,253,6.0,12.0,71,0.00,,,0.00,weatherlink.com 1.10,2013-08-26 19:54:00,
2013-08-26 16:09:00,82.4,72.0,29.92,WNW,287,3.0,8.0,70,0.00,,,0.00,weatherlink.com 1.10,2013-08-26 20:09:00,
2013-08-26 16:24:00,82.5,72.0,29.91,West,279,1.0,10.0,70,0.00,,,0.00,weatherlink.com 1.10,2013-08-26 20:24:00,
2013-08-26 16:39:00,82.5,71.0,29.91,WSW,238,5.0,10.0,69,0.00,,,0.00,weatherlink.com 1.10,2013-08-26 20:39:00,
2013-08-26 16:54:00,83.4,72.0,29.91,WSW,238,4.0,10.0,69,0.00,,,0.00,weatherlink.com 1.10,2013-08-26 20:54:00,
2013-08-26 17:09:00,83.5,71.0,29.91,West,259,5.0,12.0,67,0.00,,,0.00,weatherlink.com 1.10,2013-08-26 21:09:00,
2013-08-26 17:24:00,83.5,72.0,29.91,WSW,248,4.0,13.0,69,0.00,,,0.00,weatherlink.com 1.10,2013-08-26 21:24:00,
2013-08-26 17:39:00,83.5,72.0,29.91,WSW,249,3.0,9.0,68,0.00,,,0.00,weatherlink.com 1.10,2013-08-26 21:39:00,
2013-08-26 17:54:00,84.2,72.0,29.91,WSW,243,7.0,11.0,66,0.00,,,0.00,weatherlink.com 1.10,2013-08-26 21:54:00,
2013-08-26 18:09:00,84.4,72.0,29.91,SW,226,6.0,14.0,67,0.00,,,0.00,weatherlink.com 1.10,2013-08-26 22:09:00,
2013-08-26 18:24:00,85.0,72.0,29.91,West,267,2.0,12.0,66,0.00,,,0.00,weatherlink.com 1.10,2013-08-26 22:24:00,
2013-08-26 18:39:00,84.8,73.0,29.90,WSW,240,3.0,11.0,67,0.00,,,0.00,weatherlink.com 1.10,2013-08-26 22:39:00,
2013-08-26 18:54:00,85.0,73.0,29.90,WSW,248,3.0,7.0,67,0.00,,,0.00,weatherlink.com 1.10,2013-08-26 22:54:00,
2013-08-26 19:09:00,84.8,70.0,29.90,SW,236,3.0,15.0,62,0.00,,,0.00,weatherlink.com 1.10,2013-08-26 23:09:00,
2013-08-26 19:24:00,84.7,70.0,29.90,WNW,301,3.0,8.0,62,0.00,,,0.00,weatherlink.com 1.10,2013-08-26 23:24:00,
2013-08-26 19:39:00,84.2,71.0,29.90,West,262,2.0,7.0,64,0.00,,,0.00,weatherlink.com 1.10,2013-08-26 23:39:00,
2013-08-26 19:55:00,83.6,71.0,29.90,SW,225,4.0,7.0,65,0.00,,,0.00,weatherlink.com 1.10,2013-08-26 23:55:00,
2013-08-26 20:10:00,82.5,70.0,29.90,SW,227,3.0,3.0,66,0.00,,,0.00,weatherlink.com 1.10,2013-08-27 00:10:00,
2013-08-26 20:25:00,81.4,70.0,29.91,WSW,239,2.0,4.0,68,0.00,,,0.00,weatherlink.com 1.10,2013-08-27 00:25:00,
2013-08-26 20:40:00,80.4,70.0,29.91,SW,236,3.0,4.0,70,0.00,,,0.00,weatherlink.com 1.10,2013-08-27 00:40:00,
2013-08-26 20:55:00,79.4,70.0,29.91,SW,236,2.0,3.0,73,0.00,,,0.00,weatherlink.com 1.10,2013-08-27 00:55:00,
2013-08-26 21:10:00,78.8,70.0,29.91,WSW,245,2.0,3.0,74,0.00,,,0.00,weatherlink.com 1.10,2013-08-27 01:10:00,
2013-08-26 21:25:00,78.5,70.0,29.91,West,263,2.0,5.0,75,0.00,,,0.00,weatherlink.com 1.10,2013-08-27 01:25:00,
2013-08-26 21:40:00,78.0,70.0,29.91,WSW,245,2.0,6.0,76,0.00,,,0.00,weatherlink.com 1.10,2013-08-27 01:40:00,
2013-08-26 21:55:00,77.5,70.0,29.91,WSW,257,3.0,9.0,77,0.00,,,0.00,weatherlink.com 1.10,2013-08-27 01:55:00,
2013-08-26 22:10:00,77.5,70.0,29.92,WSW,237,4.0,11.0,77,0.00,,,0.00,weatherlink.com 1.10,2013-08-27 02:10:00,
2013-08-26 22:25:00,77.1,70.0,29.92,WSW,249,3.0,8.0,78,0.00,,,0.00,weatherlink.com 1.10,2013-08-27 02:25:00,
2013-08-26 22:40:00,76.5,70.0,29.92,WSW,243,1.0,7.0,79,0.00,,,0.00,weatherlink.com 1.10,2013-08-27 02:40:00,
2013-08-26 22:55:00,75.9,70.0,29.92,WSW,243,3.0,4.0,81,0.00,,,0.00,weatherlink.com 1.10,2013-08-27 02:55:00,
2013-08-26 23:10:00,75.3,70.0,29.92,WSW,243,2.0,4.0,82,0.00,,,0.00,weatherlink.com 1.10,2013-08-27 03:10:00,
2013-08-26 23:25:00,74.6,69.0,29.92,SW,236,3.0,3.0,83,0.00,,,0.00,weatherlink.com 1.10,2013-08-27 03:25:00,
2013-08-26 23:40:00,74.0,69.0,29.92,WSW,240,2.0,3.0,85,0.00,,,0.00,weatherlink.com 1.10,2013-08-27 03:40:00,
2013-08-26 23:55:00,73.5,69.0,29.92,WSW,242,1.0,2.0,86,0.00,,,0.00,weatherlink.com 1.10,2013-08-27 03:55:00,